KD4TJG Weather Reports


time (UTC)temp
C
wind
direction
speed
KPH
gust
KPH
rain 1hr
cm
rain 24hr
cm
rain mn
cm
humidity
%
barometer
mb
20260906103535 21 149 0.0 0.0 0.00 0.03 0.00 88 1015.2
20260906103523 21 0 0.0 1.6 0.00 0.03 0.00 88 1013.2
20260906103051 21 0 0.0 3.2 0.00 0.03 0.00 88 1013.1
20260906102524 21 0 0.0 3.2 0.00 0.03 0.00 88 1013.0
20260906102518 21 149 0.0 0.0 0.00 0.03 0.00 88 1015.0
20260906102028 21 0 0.0 3.2 0.00 0.03 0.00 88 1013.0
20260906101549 21 0 0.0 3.2 0.00 0.03 0.00 88 1012.8
20260906101501 21 106 0.0 0.0 0.00 0.03 0.00 88 1014.8
20260906101024 21 0 0.0 3.2 0.00 0.03 0.00 88 1012.8
20260906100525 21 0 0.0 3.2 0.00 0.03 0.00 88 1012.5
20260906100448 21 161 0.0 1.6 0.00 0.03 0.00 88 1014.5
20260906100041 20 47 0.0 1.6 0.00 0.03 0.00 88 1012.4
20260906095525 20 0 0.0 1.6 0.00 0.03 0.00 88 1012.4
20260906095419 21 47 0.0 0.0 0.00 0.03 0.00 88 1014.5
20260906095023 20 0 0.0 1.6 0.00 0.03 0.00 88 1012.3
20260906094552 20 0 0.0 0.0 0.00 0.03 0.00 88 1012.4
20260906094417 20 139 0.0 0.0 0.00 0.03 0.00 88 1014.3
20260906094024 20 0 0.0 0.0 0.00 0.03 0.00 88 1012.3
20260906093525 20 0 0.0 0.0 0.00 0.03 0.00 88 1012.4
20260906093405 20 139 0.0 0.0 0.00 0.03 0.00 88 1014.4
20260906093052 20 0 0.0 1.6 0.00 0.03 0.00 88 1012.2
20260906092524 20 0 0.0 1.6 0.00 0.03 0.00 88 1012.3
20260906092358 20 139 0.0 0.0 0.00 0.03 0.00 88 1014.4
20260906092025 20 0 0.0 1.6 0.00 0.03 0.00 88 1012.4
20260906091546 20 0 0.0 1.6 0.00 0.03 0.00 88 1012.2
20260906091404 20 139 0.0 0.0 0.00 0.03 0.00 88 1014.2
20260906091024 20 0 0.0 1.6 0.00 0.03 0.00 88 1012.2
20260906090524 20 0 0.0 1.6 0.00 0.03 0.00 88 1012.2
20260906090405 20 139 0.0 0.0 0.00 0.03 0.00 88 1014.3
20260906090043 20 0 0.0 1.6 0.00 0.03 0.00 88 1012.1
20260906085525 20 139 0.0 1.6 0.00 0.03 0.00 88 1012.0
20260906085403 20 139 0.0 0.0 0.00 0.03 0.00 88 1014.0
20260906085025 20 139 0.0 1.6 0.00 0.03 0.00 88 1012.0
20260906084549 20 0 0.0 0.0 0.00 0.03 0.00 88 1011.9
20260906084401 20 139 0.0 0.0 0.00 0.03 0.00 88 1013.8
20260906084024 20 0 0.0 0.0 0.00 0.03 0.00 88 1012.0
20260906083529 20 0 0.0 1.6 0.00 0.03 0.00 88 1011.9
20260906083352 20 139 0.0 0.0 0.00 0.03 0.00 88 1013.8
20260906083049 19 0 0.0 1.6 0.00 0.03 0.00 88 1011.7
20260906082526 19 0 0.0 0.0 0.00 0.03 0.00 88 1011.6
20260906082401 20 139 0.0 0.0 0.00 0.03 0.00 88 1013.7
20260906082023 19 0 0.0 1.6 0.00 0.03 0.00 88 1011.7
20260906081551 20 0 0.0 1.6 0.00 0.03 0.00 88 1011.6
20260906081420 20 139 0.0 0.0 0.00 0.03 0.00 88 1013.6
20260906081026 20 0 0.0 1.6 0.00 0.03 0.00 88 1011.6
20260906080523 20 0 0.0 1.6 0.00 0.03 0.00 88 1011.6
20260906080349 20 139 0.0 0.0 0.00 0.03 0.00 88 1013.6
20260906080054 20 139 0.0 1.6 0.00 0.03 0.00 88 1011.6
20260906075524 19 0 0.0 1.6 0.00 0.03 0.00 88 1011.5
20260906075348 20 139 0.0 0.0 0.00 0.03 0.00 88 1013.6
20260906075024 19 0 0.0 1.6 0.00 0.03 0.00 88 1011.7
20260906074557 20 0 0.0 3.2 0.00 0.03 0.00 88 1011.7
20260906074353 20 139 0.0 0.0 0.00 0.03 0.00 88 1013.8
20260906074024 20 0 0.0 3.2 0.00 0.03 0.00 88 1011.7
20260906073525 20 139 0.0 3.2 0.00 0.03 0.00 88 1011.7
20260906073053 20 0 0.0 1.6 0.00 0.03 0.00 88 1011.6
20260906072525 20 0 0.0 1.6 0.00 0.03 0.00 88 1011.6
20260906072146 20 139 0.0 0.0 0.00 0.03 0.00 88 1013.7
20260906072025 20 0 0.0 0.0 0.00 0.03 0.00 88 1011.6
20260906071547 20 0 0.0 1.6 0.00 0.03 0.00 88 1011.7
20260906071023 20 0 0.0 1.6 0.00 0.03 0.00 88 1011.7
20260906070525 20 0 0.0 0.0 0.00 0.03 0.00 88 1011.8
20260906070040 20 0 0.0 1.6 0.00 0.03 0.00 88 1011.9
20260906070004 20 139 0.0 0.0 0.00 0.03 0.00 88 1013.9
20260906065525 20 0 0.0 1.6 0.00 0.10 0.00 88 1011.9
20260906065027 20 139 0.0 0.0 0.00 0.03 0.00 88 1014.0
20260906065025 20 0 0.0 0.0 0.00 0.10 0.00 88 1011.9
20260906064551 20 0 0.0 0.0 0.00 0.10 0.00 88 1012.0
20260906064024 20 0 0.0 1.6 0.00 0.10 0.00 88 1012.0
20260906063525 20 0 0.0 1.6 0.00 0.10 0.00 88 1012.1
20260906063041 20 0 0.0 1.6 0.00 0.10 0.00 88 1012.0
20260906062523 20 0 0.0 0.0 0.00 0.10 0.00 88 1012.0
20260906062027 20 0 0.0 1.6 0.00 0.10 0.00 88 1012.0
20260906061753 20 139 0.0 0.0 0.00 0.10 0.00 88 1014.0
20260906061556 20 0 0.0 1.6 0.00 0.10 0.00 88 1012.0
20260906061024 20 0 0.0 1.6 0.00 0.10 0.00 88 1012.0
20260906060751 20 139 0.0 0.0 0.00 0.10 0.00 88 1014.0
20260906060524 20 0 0.0 1.6 0.00 0.10 0.00 88 1012.0
20260906060047 20 0 0.0 1.6 0.00 0.10 0.00 88 1011.9
20260906055746 20 139 0.0 0.0 0.00 0.10 0.00 88 1013.9
20260906055523 20 139 0.0 1.6 0.00 0.10 0.00 88 1011.9
20260906055024 20 0 0.0 1.6 0.00 0.10 0.00 88 1012.0
20260906054739 21 139 0.0 0.0 0.00 0.10 0.00 88 1014.0
20260906054547 20 0 0.0 1.6 0.00 0.10 0.00 88 1012.0
20260906054022 20 0 0.0 1.6 0.00 0.10 0.00 88 1012.0
20260906053752 21 133 0.0 0.0 0.00 0.10 0.00 88 1014.1
20260906053523 20 0 0.0 0.0 0.00 0.10 0.00 88 1012.0
20260906053041 20 0 0.0 3.2 0.00 0.10 0.00 88 1011.9
20260906052754 21 90 0.0 1.6 0.00 0.10 0.00 88 1014.0
20260906052524 20 0 0.0 3.2 0.00 0.10 0.00 88 1011.9
20260906052025 20 90 0.0 3.2 0.00 0.10 0.00 88 1012.1
20260906051600 21 0 0.0 3.2 0.00 0.10 0.00 88 1012.2
20260906051024 20 0 0.0 3.2 0.00 0.10 0.00 88 1012.2
20260906050524 21 193 0.0 3.2 0.00 0.10 0.00 88 1012.2
20260906050053 21 0 0.0 3.2 0.00 0.10 0.00 88 1012.2
20260906045523 21 260 0.0 3.2 0.00 0.10 0.00 88 1012.3
20260906045416 21 260 0.0 0.0 0.00 0.10 0.00 88 1014.3
20260906045026 21 0 0.0 3.2 0.00 0.10 0.00 88 1012.3
20260906044544 21 260 0.0 3.2 0.00 0.10 0.00 88 1012.2
20260906044407 21 260 0.0 0.0 0.00 0.10 0.00 88 1014.3
20260906044023 21 0 0.0 3.2 0.00 0.10 0.00 88 1012.2
20260906043528 21 0 0.0 3.2 0.00 0.10 0.00 88 1012.4
20260906043353 21 260 0.0 0.0 0.00 0.10 0.00 88 1014.4
20260906043049 21 260 0.0 3.2 0.00 0.10 0.00 88 1012.5
20260906042523 21 0 0.0 1.6 0.00 0.10 0.00 88 1012.4
20260906042024 21 0 0.0 3.2 0.00 0.10 0.00 88 1012.4
20260906041550 21 0 0.0 3.2 0.00 0.10 0.00 88 1012.5
20260906041251 21 260 0.0 1.6 0.00 0.10 0.00 87 1014.4
20260906041024 21 0 0.0 1.6 0.00 0.10 0.00 87 1012.4
20260906040524 21 0 0.0 1.6 0.00 0.10 0.00 87 1012.4
20260906040241 21 260 0.0 0.0 0.00 0.10 0.00 87 1014.6
20260906040047 21 260 0.0 4.8 0.00 0.10 0.00 87 1012.5
20260906035523 21 0 0.0 4.8 0.00 0.10 0.10 87 1012.6
20260906035238 21 260 0.0 1.6 0.00 0.10 0.10 87 1014.5
20260906035023 21 267 0.0 3.2 0.00 0.10 0.10 87 1012.6
20260906034554 21 0 0.0 3.2 0.00 0.10 0.10 87 1012.6
20260906034234 22 12 0.0 1.6 0.00 0.10 0.10 87 1014.6
20260906034025 21 291 1.6 3.2 0.00 0.10 0.10 87 1012.5
20260906033523 21 0 0.0 4.8 0.00 0.10 0.10 87 1012.7
20260906033211 21 296 0.0 0.0 0.00 0.10 0.10 87 1014.5
20260906033053 21 258 0.0 4.8 0.00 0.10 0.10 87 1012.5
20260906032523 21 19 1.6 4.8 0.00 0.10 0.10 87 1012.6
20260906032024 21 0 0.0 3.2 0.00 0.10 0.10 87 1012.4
20260906031555 21 0 0.0 3.2 0.00 0.10 0.10 87 1012.3
20260906031024 21 168 0.0 1.6 0.00 0.10 0.10 87 1014.4
20260906030525 21 0 0.0 3.2 0.00 0.10 0.10 87 1012.4
20260906030050 21 168 1.6 3.2 0.00 0.10 0.10 87 1012.3
20260906030029 21 168 0.0 1.6 0.00 0.10 0.10 87 1014.3
20260906025524 21 0 0.0 1.6 0.00 0.13 0.10 87 1012.3
20260906025027 21 0 0.0 1.6 0.00 0.13 0.10 87 1012.3
20260906025018 21 168 0.0 0.0 0.00 0.13 0.10 87 1014.3
20260906024548 21 0 0.0 1.6 0.00 0.13 0.10 87 1012.3
20260906024026 21 0 0.0 0.0 0.00 0.13 0.10 87 1012.3
20260906024016 21 168 0.0 0.0 0.00 0.13 0.10 87 1014.3
20260906023524 21 0 0.0 1.6 0.00 0.13 0.10 87 1012.3
20260906023044 21 0 0.0 1.6 0.00 0.13 0.10 87 1012.2
20260906023006 21 168 0.0 0.0 0.00 0.13 0.10 87 1014.2
20260906022527 21 168 0.0 1.6 0.00 0.13 0.10 87 1012.2
20260906022024 21 0 0.0 1.6 0.00 0.13 0.10 87 1012.2
20260906022003 22 168 0.0 0.0 0.00 0.13 0.10 87 1014.2
20260906021554 21 0 0.0 0.0 0.00 0.13 0.10 87 1012.2
20260906021028 22 168 0.0 0.0 0.00 0.13 0.10 87 1014.1
20260906021021 21 0 0.0 1.6 0.00 0.13 0.10 87 1012.1
20260906020526 21 0 0.0 1.6 0.00 0.13 0.10 87 1012.1
20260906020057 22 0 0.0 1.6 0.00 0.13 0.10 87 1012.2
20260906020032 22 168 0.0 0.0 0.00 0.13 0.10 87 1014.3
20260906015538 22 0 0.0 1.6 0.00 0.13 0.10 87 1012.2
20260906015024 22 0 0.0 0.0 0.00 0.13 0.10 87 1012.3
20260906014550 22 0 0.0 0.0 0.00 0.13 0.10 87 1012.2
20260906014024 22 0 0.0 0.0 0.00 0.13 0.10 87 1012.2
20260906013523 22 0 0.0 0.0 0.00 0.13 0.10 87 1012.1
20260906013042 22 0 0.0 0.0 0.00 0.13 0.10 87 1012.1
20260906012737 22 168 0.0 0.0 0.00 0.13 0.10 87 1014.1
20260906012526 22 0 0.0 0.0 0.00 0.13 0.10 87 1011.9
20260906012025 22 0 0.0 0.0 0.00 0.13 0.10 87 1011.9
20260906011705 22 168 0.0 0.0 0.00 0.13 0.10 87 1013.9
20260906011550 22 0 0.0 0.0 0.00 0.13 0.10 87 1011.8
20260906011024 22 0 0.0 0.0 0.00 0.13 0.10 87 1011.8
20260906010525 22 0 0.0 0.0 0.00 0.13 0.10 87 1011.8
20260906010053 22 0 0.0 0.0 0.00 0.13 0.10 86 1011.8
20260906005526 22 0 0.0 0.0 0.00 0.13 0.10 86 1011.8
20260906005510 23 168 0.0 0.0 0.00 0.13 0.10 86 1013.8
20260906005027 22 0 0.0 0.0 0.00 0.13 0.10 86 1011.8
20260906004544 22 0 0.0 1.6 0.00 0.13 0.10 86 1011.8
20260906004532 23 168 0.0 0.0 0.00 0.13 0.10 86 1013.8
20260906004027 23 0 0.0 1.6 0.00 0.13 0.10 86 1011.6
20260906003524 23 0 0.0 3.2 0.00 0.13 0.10 85 1011.6
20260906003512 23 168 0.0 0.0 0.00 0.13 0.10 85 1013.5
20260906003043 23 0 0.0 3.2 0.00 0.13 0.10 85 1011.5
20260906002524 23 168 0.0 3.2 0.00 0.13 0.10 85 1011.5
20260906002026 23 168 0.0 3.2 0.00 0.13 0.10 85 1011.5
20260906001548 23 168 1.6 3.2 0.00 0.13 0.10 84 1011.4
20260906001433 23 168 0.0 1.6 0.00 0.13 0.10 84 1013.5
20260906001025 23 168 0.0 3.2 0.00 0.13 0.10 84 1011.4
20260906000525 24 258 0.0 1.6 0.00 0.13 0.10 84 1011.3
20260906000426 24 258 0.0 0.0 0.00 0.13 0.10 84 1013.4
20260906000050 24 0 0.0 1.6 0.00 0.13 0.10 83 1011.2
20260905235524 24 258 0.0 1.6 0.00 0.51 0.10 83 1011.2
20260905235357 25 258 0.0 0.0 0.00 0.33 0.10 82 1013.2
20260905235025 25 258 0.0 1.6 0.00 0.51 0.10 81 1011.1
20260905234548 25 0 0.0 1.6 0.00 0.51 0.10 81 1011.0
20260905234348 25 258 0.0 0.0 0.00 0.51 0.10 81 1013.0
20260905234024 25 258 0.0 1.6 0.00 0.51 0.10 80 1011.0
20260905233526 25 0 0.0 1.6 0.00 0.51 0.10 78 1011.0
20260905233359 26 258 0.0 0.0 0.00 0.51 0.10 78 1013.0
20260905233044 26 0 0.0 1.6 0.00 0.51 0.10 77 1011.0
20260905232525 26 0 0.0 1.6 0.00 0.51 0.10 76 1011.0
20260905232338 26 229 0.0 0.0 0.00 0.51 0.10 76 1013.0
20260905232024 26 0 0.0 4.8 0.00 0.51 0.10 75 1010.9
20260905231547 26 229 1.6 4.8 0.00 0.51 0.10 73 1010.9
20260905231024 27 223 0.0 4.8 0.00 0.51 0.10 73 1011.0
20260905230525 27 229 0.0 8.0 0.00 0.51 0.10 70 1010.9
20260905230230 27 203 1.6 4.8 0.00 0.51 0.10 70 1012.8
20260905230049 27 0 1.6 8.0 0.00 0.51 0.10 70 1010.8
20260905225522 27 195 1.6 6.4 0.00 0.51 0.10 71 1010.9
20260905225226 27 191 0.0 4.8 0.00 0.51 0.10 70 1013.0
20260905225023 27 183 0.0 6.4 0.00 0.51 0.10 71 1010.9
20260905224558 27 224 1.6 6.4 0.00 0.51 0.10 71 1011.0
20260905224025 27 0 1.6 4.8 0.00 0.51 0.10 71 1011.0
20260905223525 27 173 3.2 8.0 0.00 0.51 0.10 71 1011.0
20260905223048 27 205 1.6 9.7 0.00 0.51 0.10 71 1011.0
20260905222525 27 158 3.2 9.7 0.00 0.51 0.10 70 1011.0
20260905222024 27 201 3.2 9.7 0.00 0.51 0.10 71 1011.0
20260905221556 27 200 3.2 11.3 0.00 0.51 0.10 71 1011.2
20260905221028 27 189 4.8 11.3 0.00 0.51 0.10 71 1011.3
20260905220521 27 184 3.2 9.7 0.00 0.51 0.10 72 1011.3
20260905220104 27 247 4.8 11.3 0.00 0.51 0.10 73 1011.4
20260905215846 27 222 4.8 12.9 0.00 0.51 0.10 72 1013.4
20260905215525 27 221 4.8 16.1 0.00 0.51 0.10 72 1011.3
20260905215024 27 211 4.8 16.1 0.00 0.51 0.10 72 1011.4
20260905214832 27 208 4.8 12.9 0.00 0.51 0.10 72 1013.5
20260905214547 27 139 6.4 16.1 0.00 0.51 0.10 71 1011.4
20260905214024 27 242 6.4 16.1 0.00 0.51 0.10 72 1011.5
20260905213802 27 215 6.4 12.9 0.00 0.51 0.10 72 1013.6
20260905213525 27 194 8.0 16.1 0.00 0.51 0.10 71 1011.5
20260905213046 28 172 6.4 14.5 0.00 0.51 0.10 69 1011.5
20260905212527 28 187 3.2 8.0 0.00 0.51 0.10 69 1011.4
20260905212023 28 195 1.6 4.8 0.00 0.51 0.10 69 1011.4
20260905211638 28 174 1.6 8.0 0.00 0.51 0.10 69 1013.5
20260905211617 28 174 1.6 11.3 0.00 0.51 0.10 69 1011.4
20260905211024 28 177 0.0 12.9 0.00 0.51 0.10 68 1011.5
20260905210654 29 299 4.8 9.7 0.00 0.51 0.10 66 1013.6
20260905210525 28 246 4.8 12.9 0.00 0.51 0.10 65 1011.5
20260905210054 29 281 6.4 12.9 0.00 0.51 0.10 64 1011.5
20260905205524 30 142 4.8 12.9 0.00 0.51 0.10 66 1011.4
20260905205025 29 197 4.8 11.3 0.00 0.51 0.10 68 1011.3
20260905204555 29 176 4.8 11.3 0.00 0.51 0.10 67 1011.2
20260905204439 29 181 3.2 9.7 0.00 0.51 0.10 67 1013.1
20260905204024 28 221 4.8 9.7 0.00 0.51 0.10 69 1011.0
20260905203523 28 182 3.2 9.7 0.00 0.51 0.10 69 1011.0
20260905203501 28 224 1.6 6.4 0.00 0.51 0.10 71 1013.1
20260905203103 27 255 0.0 8.0 0.00 0.51 0.10 73 1011.1
20260905202519 27 263 1.6 8.0 0.00 0.51 0.10 75 1011.1
20260905202437 27 220 1.6 6.4 0.00 0.51 0.10 76 1013.2
20260905202025 27 260 3.2 9.7 0.00 0.51 0.10 78 1011.2
20260905201545 26 208 4.8 9.7 0.00 0.51 0.10 78 1011.2
20260905201435 26 247 1.6 6.4 0.00 0.51 0.10 78 1013.3
20260905201024 26 223 1.6 8.0 0.00 0.51 0.10 80 1011.2
20260905200528 26 39 3.2 12.9 0.00 0.51 0.10 81 1011.3
20260905200438 26 211 3.2 12.9 0.00 0.51 0.10 81 1013.4
20260905200053 26 275 1.6 14.5 0.00 0.51 0.10 81 1011.3
20260905195524 25 181 4.8 14.5 0.00 0.51 0.10 82 1011.2
20260905195422 26 162 4.8 12.9 0.00 0.51 0.10 82 1013.3
20260905195027 25 197 4.8 12.9 0.00 0.51 0.10 83 1011.5
20260905194549 25 167 4.8 11.3 0.00 0.51 0.10 83 1011.6
20260905194430 25 210 3.2 8.0 0.00 0.51 0.10 83 1013.7
20260905194028 25 185 1.6 9.7 0.00 0.51 0.10 83 1012.0
20260905193525 25 206 3.2 11.3 0.00 0.51 0.10 83 1011.8
20260905193433 25 168 3.2 9.7 0.00 0.51 0.10 83 1013.9
20260905193043 25 249 3.2 11.3 0.00 0.51 0.10 83 1012.0
20260905192524 25 197 6.4 11.3 0.00 0.51 0.10 83 1011.8
20260905192419 26 216 1.6 9.7 0.00 0.51 0.10 83 1013.8
20260905192024 25 205 3.2 4.8 0.00 0.51 0.10 82 1011.5
20260905191548 26 0 0.0 4.8 0.03 0.51 0.10 81 1011.0
20260905191423 26 269 1.6 3.2 0.00 0.51 0.10 81 1013.0
20260905191026 26 231 1.6 6.4 0.03 0.51 0.10 79 1010.8
20260905190525 26 0 1.6 8.0 0.03 0.51 0.10 78 1010.6
20260905190415 26 120 3.2 6.4 0.00 0.51 0.10 78 1012.6
20260905190048 26 147 4.8 8.0 0.03 0.51 0.10 78 1010.6
20260905185525 26 108 4.8 8.0 0.03 0.51 0.10 78 1011.1
20260905185024 26 85 1.6 4.8 0.03 0.51 0.10 79 1011.4
20260905184549 26 0 0.0 6.4 0.03 0.51 0.10 80 1011.4
20260905184225 26 265 1.6 4.8 0.00 0.51 0.10 79 1013.4
20260905184023 26 265 1.6 6.4 0.03 0.51 0.10 79 1011.4
20260905183526 26 341 3.2 6.4 0.03 0.51 0.10 79 1011.7
20260905183155 26 10 1.6 27.4 0.03 0.51 0.10 78 1013.5
20260905183057 26 34 1.6 9.7 0.03 0.51 0.10 77 1011.5
20260905182525 27 0 3.2 19.3 0.03 0.51 0.10 74 1011.8
20260905182155 28 262 8.0 27.4 0.03 0.51 0.10 70 1013.8
20260905182026 29 276 6.4 37.0 0.03 0.51 0.10 69 1011.8
20260905181604 31 337 14.5 37.0 0.00 0.48 0.08 60 1011.8
20260905181206 32 233 4.8 25.7 0.00 0.48 0.08 60 1013.8
20260905181024 32 266 8.0 20.9 0.00 0.48 0.08 60 1011.6
20260905180526 32 0 1.6 12.9 0.00 0.48 0.08 59 1011.5
20260905180145 33 226 4.8 19.3 0.00 0.48 0.08 59 1013.5
20260905180042 32 307 3.2 20.9 0.00 0.48 0.08 58 1011.4
20260905175525 33 18 3.2 25.7 0.00 0.48 0.08 58 1011.7
20260905175111 34 273 4.8 19.3 0.00 0.48 0.08 56 1013.8
20260905175023 33 262 9.7 25.7 0.00 0.48 0.08 55 1011.8
20260905174555 34 228 4.8 19.3 0.00 0.48 0.08 55 1011.5
20260905174027 34 266 8.0 19.3 0.00 0.48 0.08 55 1011.5
20260905173524 34 224 4.8 17.7 0.00 0.48 0.08 56 1011.7
20260905173049 33 263 4.8 12.9 0.00 0.48 0.08 55 1011.8
20260905173002 34 274 1.6 11.3 0.00 0.48 0.08 55 1013.8
20260905172524 34 254 0.0 14.5 0.00 0.48 0.08 58 1012.0
20260905172025 34 4 1.6 19.3 0.00 0.48 0.08 60 1012.1
20260905171934 34 182 6.4 17.7 0.00 0.48 0.08 58 1014.1
20260905171546 33 226 4.8 20.9 0.00 0.48 0.08 56 1012.3
20260905171028 33 246 8.0 20.9 0.00 0.48 0.08 59 1012.4
20260905170941 33 228 1.6 17.7 0.00 0.48 0.08 58 1014.4
20260905170524 33 11 3.2 12.9 0.00 0.48 0.08 57 1012.6
20260905170055 33 12 1.6 11.3 0.00 0.48 0.08 57 1012.5
20260905165918 33 43 1.6 6.4 0.00 0.48 0.08 57 1014.6
20260905165526 33 0 3.2 11.3 0.00 0.48 0.08 58 1012.7
20260905165024 33 260 1.6 11.3 0.00 0.48 0.08 61 1012.8
20260905164918 33 307 1.6 6.4 0.00 0.48 0.08 60 1014.7
20260905164548 33 202 1.6 12.9 0.00 0.48 0.08 58 1012.9
20260905164024 33 17 1.6 14.5 0.00 0.48 0.08 57 1012.9
20260905163524 33 287 4.8 16.1 0.00 0.48 0.08 56 1012.9
20260905163049 33 249 4.8 16.1 0.00 0.48 0.08 59 1012.8
20260905162727 33 342 3.2 14.5 0.00 0.48 0.08 60 1014.9
20260905162526 33 172 3.2 11.3 0.00 0.48 0.08 58 1012.9
20260905162023 33 249 3.2 11.3 0.00 0.48 0.08 58 1013.0
20260905161724 33 301 1.6 8.0 0.00 0.48 0.08 58 1015.0
20260905161541 33 184 3.2 9.7 0.00 0.48 0.08 63 1012.9
20260905161023 32 308 1.6 11.3 0.00 0.48 0.08 60 1013.0
20260905160735 33 352 1.6 8.0 0.00 0.48 0.08 61 1015.0
20260905160524 33 244 3.2 11.3 0.00 0.48 0.08 61 1013.1
20260905160118 32 146 3.2 11.3 0.00 0.48 0.08 59 1013.0
20260905155742 33 238 3.2 12.9 0.00 0.48 0.08 62 1015.2
20260905155525 32 257 1.6 16.1 0.00 0.48 0.08 60 1013.1
20260905155024 32 261 6.4 16.1 0.00 0.48 0.08 61 1013.1
20260905154549 32 326 6.4 14.5 0.00 0.48 0.08 61 1013.1
20260905154025 32 237 6.4 16.1 0.00 0.48 0.08 62 1013.2
20260905153641 32 254 3.2 14.5 0.00 0.48 0.08 61 1015.2
20260905153525 32 226 1.6 16.1 0.00 0.48 0.08 62 1013.2
20260905153047 32 245 3.2 16.1 0.00 0.48 0.08 63 1013.3
20260905152620 32 204 4.8 9.7 0.00 0.48 0.08 64 1015.2
20260905152524 32 347 4.8 12.9 0.00 0.48 0.08 63 1013.2
20260905152024 32 278 6.4 12.9 0.00 0.48 0.08 63 1013.3
20260905151623 32 191 1.6 8.0 0.00 0.48 0.08 65 1015.2
20260905151603 31 246 4.8 9.7 0.00 0.48 0.08 66 1013.3
20260905151021 31 15 1.6 11.3 0.00 0.48 0.08 68 1013.3
20260905150524 31 195 3.2 11.3 0.00 0.48 0.08 67 1013.4
20260905150052 31 254 3.2 9.7 0.00 0.48 0.08 70 1013.4
20260905145530 31 3 4.8 11.3 0.00 0.48 0.08 69 1015.5
20260905145526 31 0 1.6 11.3 0.00 0.48 0.08 69 1013.5
20260905145029 30 220 6.4 11.3 0.00 0.48 0.08 70 1013.6
20260905144549 30 175 4.8 14.5 0.00 0.48 0.08 71 1013.7
20260905144544 30 188 4.8 11.3 0.00 0.48 0.08 71 1015.7
20260905144027 30 227 8.0 14.5 0.00 0.48 0.08 72 1013.6
20260905143559 30 213 1.6 9.7 0.00 0.48 0.08 73 1015.6
20260905143524 30 186 3.2 11.3 0.00 0.48 0.08 73 1013.6
20260905143048 30 189 3.2 11.3 0.00 0.48 0.08 73 1013.6
20260905142602 30 191 3.2 9.7 0.00 0.48 0.08 74 1015.6
20260905142523 30 170 6.4 11.3 0.00 0.48 0.08 75 1013.6
20260905142023 29 159 3.2 11.3 0.00 0.48 0.08 76 1013.5
20260905141625 30 183 1.6 8.0 0.00 0.48 0.08 73 1015.5
20260905141543 29 195 3.2 9.7 0.00 0.48 0.08 73 1013.4
20260905141024 29 230 1.6 8.0 0.00 0.48 0.08 75 1013.5
20260905140550 29 241 1.6 4.8 0.00 0.48 0.08 77 1015.5
20260905140527 28 198 3.2 6.4 0.00 0.48 0.08 77 1013.4
20260905140050 28 193 3.2 6.4 0.00 0.48 0.08 78 1013.5
20260905135613 28 212 1.6 3.2 0.00 0.48 0.08 79 1015.5
20260905135526 28 185 1.6 6.4 0.00 0.48 0.08 79 1013.4
20260905135025 28 135 1.6 6.4 0.00 0.48 0.08 80 1013.4
20260905134549 27 0 3.2 6.4 0.00 0.48 0.08 80 1013.4
20260905134546 27 235 1.6 8.0 0.00 0.48 0.08 80 1015.5
20260905134026 27 183 1.6 6.4 0.00 0.48 0.08 82 1013.4
20260905133542 27 201 1.6 8.0 0.00 0.48 0.08 82 1015.5
20260905133523 27 201 1.6 9.7 0.00 0.48 0.08 82 1013.4
20260905133042 26 172 3.2 9.7 0.00 0.48 0.08 83 1013.4
20260905132529 26 176 3.2 9.7 0.00 0.48 0.08 85 1013.3
20260905132527 26 172 1.6 8.0 0.00 0.48 0.08 85 1015.3
20260905132025 26 178 1.6 9.7 0.00 0.48 0.08 86 1013.3
20260905131548 25 145 1.6 8.0 0.00 0.48 0.08 87 1013.4
20260905131534 26 156 1.6 6.4 0.00 0.48 0.08 87 1015.5
20260905131024 25 174 3.2 6.4 0.00 0.48 0.08 87 1013.4
20260905130528 25 167 1.6 8.0 0.00 0.48 0.08 87 1015.5
20260905130526 25 167 1.6 9.7 0.00 0.48 0.08 87 1013.5
20260905130046 24 192 3.2 9.7 0.00 0.48 0.08 88 1013.6
20260905125524 24 202 4.8 9.7 0.00 0.48 0.08 88 1013.5
20260905125509 24 184 3.2 8.0 0.00 0.48 0.08 88 1015.6
20260905125023 23 181 3.2 6.4 0.00 0.48 0.08 88 1013.6
20260905124556 23 266 3.2 9.7 0.00 0.48 0.08 88 1013.6
20260905124450 23 226 1.6 4.8 0.00 0.48 0.08 88 1015.6
20260905124025 23 208 3.2 9.7 0.00 0.48 0.08 88 1013.6
20260905123525 23 190 0.0 4.8 0.00 0.48 0.08 88 1013.7
20260905123513 23 187 1.6 3.2 0.00 0.48 0.08 88 1015.7
20260905123051 22 168 1.6 4.8 0.00 0.48 0.08 88 1013.7
20260905122525 22 163 1.6 6.4 0.00 0.48 0.08 88 1013.6
20260905122503 22 163 1.6 3.2 0.00 0.48 0.08 88 1015.7
20260905122025 22 183 0.0 6.4 0.00 0.48 0.08 88 1013.7
20260905121546 22 146 1.6 6.4 0.00 0.48 0.08 88 1013.7
20260905121434 22 159 0.0 1.6 0.00 0.48 0.08 89 1015.7
20260905121024 22 0 1.6 3.2 0.00 0.48 0.08 89 1013.6
20260905120525 21 190 0.0 3.2 0.00 0.48 0.08 88 1013.6
20260905120042 21 0 0.0 1.6 0.00 0.48 0.08 89 1013.6
20260905115525 21 0 0.0 1.6 0.00 0.48 0.08 88 1013.5
20260905115236 21 190 0.0 0.0 0.00 0.48 0.08 89 1015.5
20260905115027 21 0 0.0 1.6 0.00 0.48 0.08 89 1013.4
20260905114553 21 0 0.0 3.2 0.00 0.48 0.08 89 1013.5
20260905114226 21 190 0.0 1.6 0.00 0.48 0.08 89 1015.4
20260905114024 21 0 0.0 4.8 0.00 0.48 0.08 89 1013.3
20260905113525 20 190 1.6 4.8 0.00 0.48 0.08 89 1013.1
20260905113052 20 0 0.0 0.0 0.00 0.48 0.08 89 1013.1
20260905112527 20 0 0.0 0.0 0.00 0.48 0.08 89 1013.1
20260905112125 20 273 0.0 0.0 0.00 0.48 0.08 89 1015.0
20260905112025 20 0 0.0 0.0 0.00 0.48 0.08 89 1013.1
20260905111601 20 0 0.0 0.0 0.00 0.48 0.08 89 1013.0
20260905111103 20 273 0.0 0.0 0.00 0.48 0.08 89 1015.0
20260905111025 20 0 0.0 0.0 0.00 0.48 0.08 89 1013.0
20260905110527 20 0 0.0 0.0 0.00 0.48 0.08 89 1013.0
20260905110058 20 0 0.0 0.0 0.00 0.48 0.08 88 1013.0
20260905105525 20 0 0.0 0.0 0.00 0.48 0.08 89 1013.0
20260905105023 20 0 0.0 0.0 0.00 0.48 0.08 88 1012.9
20260905104921 20 273 0.0 0.0 0.00 0.48 0.08 88 1014.9
20260905104550 20 0 0.0 0.0 0.00 0.48 0.08 88 1012.8
20260905104024 20 0 0.0 0.0 0.00 0.48 0.08 88 1012.8
20260905103847 21 273 0.0 0.0 0.00 0.48 0.08 88 1014.8